Location: Chassagnes
(44.4047°N, 4.1657°E)
Time: 13:06:21
(UTC+00:00)

Cosmos 1697 Rocket - Pass Details

Date: 27 October 2020
Orbit: 831 x 845 km, 71.0° (Epoch: 23 November)

Event Time Altitude Azimuth Distance (km) Brightness Sun altitude
Rises 19:21:08 0° 223° (SW) 3,366 6.2 -29.4°
Reaches altitude 10° 19:23:40 10° 230° (SW) 2,437 5.5 -29.8°
Maximum altitude 19:29:00 45° 302° (WNW) 1,135 3.6 -30.8°
Enters shadow 19:31:36 27° 357° (N) 1,553 4.1 -31.2°
